FENGYUN 1C DEB, 31767

Orbit data source: Space-Track

FENGYUN 1C DEB, 31767 is space debris in SSO originally from a launch on Mon, 10 May 1999 UTC launched from the Taiyaun Space Center, China (TSC). Fengyun 1C debris stems from the Chinese weather satellite Fengyun-1C, which was intentionally destroyed by a Chinese anti-satellite missile in 2007. This event dramatically increased the amount of space debris, with thousands of trackable fragments posing hazards to satellites and human spaceflight. The Fengyun 1C debris cloud has become a focal point in discussions about space sustainability and the need for international regulations to prevent the creation of new debris.

Loading next visibility...
Identifier
31767, 1999-025CFS
Orbit
SSO
Country
Flag of CNCN / PRC
Related business
Manufacturer
Unknown
Mission
Spacecraft
Bus & Motor
Unknown
Mass
Unknown
Launch date (UTC)
1999-05-10 (27 years ago)
Launch vehicle
Unknown
Launch site
Taiyaun Space Center, China (TSC)
Object type
Payload
Rocket body
Debris
Shape & HBR
Unknown shape, 0.1 m
Radar Cross Section
Small (<0.1 m²)

Expand to show TLE details & history
Last TLE update: 4 days ago

TLE from 4 days ago
0 FENGYUN 1C DEB
1 31767U 99025CFS 26252.02109756  .00000306  00000-0  21451-3 0  9991
2 31767  98.7964 278.8681 0041362  33.3374 357.5945 14.05088572986212
Epoch: 2026-09-09T00:30Z
TLE epoch observation values (Epoch: 2026-09-09T00:30:22.829Z)
Latitude
30.56331°
Longitude
-82.02148°
Altitude
850.068 km
Speed
7.446 km/s
True Right ascension
18h 14m 36s
True Declination
30° 24' 54"
Sunlit
Object was in daylight at epoch
Visualization orbit readout
Latitude
Unknown
Longitude
Unknown
Altitude
Unknown
Speed
Unknown
Apparent Right ascension
Unknown
Apparent Declination
Unknown
Sunlit
N/A
Visualization observer readout
Local Sidereal Time
10:38:34
Azimuth
Unknown
Elevation
Unknown
Doppler factor
Unknown
Orbital elements
Apogee altitude
903.404 km
Perigee altitude
843.416 km
Semi-major axis
7,251.547 km
Eccentricity
0.00414
Inclination
98.7964°
RAAN
278.8681°
Arg. of periapsis
33.3374°
True anomaly
357.5745°
Mean anomaly
357.5945°
Eccentric anomaly
357.58451°
Mean motion
3.51477 °/min
Orbital period
102.42 mins
BSTAR
0.00021451
Loading maneuver chart data...
Computing Atmospheric mass density...
Loading historical data...
Loading historical data...
Loading historical data...
Loading historical data...
Loading historical data...
Loading historical data...
Loading historical data...

Documentation

Showing up to 5 results
|